EW3451 Weather Reports


time (UTC)temp
C
wind
direction
speed
KPH
gust
KPH
rain 1hr
cm
rain 24hr
cm
rain mn
cm
humidity
%
barometer
mb
20260510153355 19 241 9.7 22.5 0.00 0.00 0.00 65 1017.4
20260510152848 19 351 8.0 22.5 0.00 0.00 0.00 64 1017.4
20260510152342 19 240 14.5 25.7 0.00 0.00 0.00 66 1017.5
20260510151834 19 322 12.9 29.0 0.00 0.00 0.00 65 1017.4
20260510151327 18 250 9.7 29.0 0.00 0.00 0.00 65 1017.4
20260510150901 19 297 11.3 24.1 0.00 0.00 0.00 64 1017.5
20260510150353 19 229 9.7 24.1 0.00 0.00 0.00 63 1017.5
20260510145830 19 283 11.3 20.9 0.00 0.00 0.00 64 1017.4
20260510144944 18 300 6.4 16.1 0.00 0.00 0.00 64 1017.3
20260510144352 18 307 3.2 20.9 0.00 0.00 0.00 67 1017.2
20260510143845 18 304 9.7 20.9 0.00 0.00 0.00 65 1017.2
20260510143338 18 245 8.0 17.7 0.00 0.00 0.00 65 1017.3
20260510142832 18 240 8.0 19.3 0.00 0.00 0.00 64 1017.2
20260510141840 18 344 6.4 14.5 0.00 0.00 0.00 66 1017.1
20260510141316 18 319 3.2 14.5 0.00 0.00 0.00 67 1017.1
20260510140850 17 248 4.8 20.9 0.00 0.00 0.00 67 1017.0
20260510140346 17 280 4.8 20.9 0.00 0.00 0.00 73 1017.0
20260510135835 17 316 4.8 17.7 0.00 0.00 0.00 70 1017.0
20260510135328 17 245 8.0 22.5 0.00 0.00 0.00 69 1017.0
20260510134901 17 323 9.7 22.5 0.00 0.00 0.00 72 1017.1
20260510134353 16 290 9.7 19.3 0.00 0.00 0.00 71 1017.1
20260510133846 16 326 3.2 22.5 0.00 0.00 0.00 73 1017.1
20260510133323 16 249 9.7 22.5 0.00 0.00 0.00 71 1017.0
20260510132856 16 238 11.3 22.5 0.00 0.00 0.00 70 1017.2
20260510132349 16 339 6.4 19.3 0.00 0.00 0.00 73 1017.0
20260510131842 16 236 8.0 20.9 0.00 0.00 0.00 71 1017.2
20260510131336 16 250 6.4 16.1 0.00 0.00 0.00 73 1017.1
20260510130829 16 54 4.8 16.1 0.00 0.00 0.00 74 1017.2
20260510130402 16 269 8.0 17.7 0.00 0.00 0.00 73 1017.1
20260510125855 15 289 4.8 17.7 0.00 0.00 0.00 75 1017.1
20260510125333 15 259 8.0 16.1 0.00 0.00 0.00 73 1017.0
20260510124902 15 269 6.4 14.5 0.00 0.00 0.00 75 1017.0
20260510124356 15 248 9.7 16.1 0.00 0.00 0.00 75 1017.0
20260510123405 14 230 6.4 17.7 0.00 0.00 0.00 78 1017.0
20260510122857 14 238 8.0 17.7 0.00 0.00 0.00 79 1017.0
20260510122349 13 246 8.0 17.7 0.00 0.00 0.00 80 1017.0
20260510121842 13 244 8.0 14.5 0.00 0.00 0.00 80 1016.9
20260510121320 13 274 4.8 20.9 0.00 0.00 0.00 81 1016.8
20260510120852 13 242 8.0 20.9 0.00 0.00 0.00 81 1016.6
20260510115900 12 306 4.8 14.5 0.00 0.00 0.00 83 1016.5
20260510114827 12 217 3.2 17.7 0.00 0.00 0.00 84 1016.4
20260510114400 12 276 4.8 16.1 0.00 0.00 0.00 85 1016.4
20260510113853 11 292 8.0 16.1 0.00 0.00 0.00 86 1016.3
20260510113346 11 278 4.8 12.9 0.00 0.00 0.00 88 1016.2
20260510112821 11 239 3.2 9.7 0.00 0.00 0.00 89 1016.3
20260510112356 11 308 4.8 8.0 0.00 0.00 0.00 89 1016.2
20260510110839 10 210 3.2 6.4 0.00 0.00 0.00 92 1016.1
20260510110332 10 297 3.2 9.7 0.00 0.00 0.00 92 1016.0
20260510105906 10 273 3.2 9.7 0.00 0.00 0.00 92 1016.0
20260510105359 9 253 1.6 6.4 0.00 0.00 0.00 93 1015.9
20260510104835 9 299 1.6 6.4 0.00 0.00 0.00 93 1015.8
20260510103359 9 338 0.0 6.4 0.00 0.00 0.00 92 1015.6
20260510102851 9 313 1.6 6.4 0.00 0.00 0.00 92 1015.5
20260510102344 9 274 0.0 1.6 0.00 0.00 0.00 92 1015.4
20260510101838 9 274 0.0 3.2 0.00 0.00 0.00 91 1015.3
20260510101330 9 274 1.6 3.2 0.00 0.00 0.00 91 1015.2
20260510100904 9 179 0.0 4.8 0.00 0.00 0.00 92 1015.2
20260510100357 10 179 1.6 4.8 0.00 0.00 0.00 92 1015.1
20260510095834 9 249 1.6 3.2 0.00 0.00 0.00 91 1015.1
20260510095407 10 249 0.0 4.8 0.00 0.00 0.00 91 1015.0
20260510094333 10 249 1.6 3.2 0.00 0.00 0.00 90 1015.0
20260510093826 10 249 0.0 4.8 0.00 0.00 0.00 90 1015.0
20260510093400 10 249 1.6 4.8 0.00 0.00 0.00 90 1015.0
20260510092853 10 249 0.0 3.2 0.00 0.00 0.00 90 1015.0
20260510092345 10 249 0.0 4.8 0.00 0.00 0.00 90 1014.9
20260510091821 10 249 0.0 4.8 0.00 0.00 0.00 90 1014.9
20260510090831 10 271 3.2 4.8 0.00 0.00 0.00 90 1014.6
20260510090403 10 237 1.6 4.8 0.00 0.00 0.00 90 1014.6
20260510085331 10 238 3.2 6.4 0.00 0.00 0.00 91 1014.5
20260510084903 10 219 3.2 8.0 0.00 0.00 0.00 91 1014.5
20260510083815 10 270 1.6 6.4 0.00 0.00 0.00 90 1014.5
20260510083405 10 236 3.2 6.4 0.00 0.00 0.00 91 1014.5
20260510082842 10 278 1.6 6.4 0.00 0.00 0.00 91 1014.4
20260510080820 10 288 3.2 6.4 0.00 0.00 0.00 91 1014.2
20260510075404 10 302 1.6 6.4 0.00 0.00 0.00 92 1014.2
20260510074855 10 351 3.2 6.4 0.00 0.00 0.00 92 1014.2
20260510073904 10 272 3.2 8.0 0.00 0.00 0.00 92 1014.2
20260510073341 10 316 3.2 6.4 0.00 0.00 0.00 92 1014.2
20260510072834 10 316 1.6 3.2 0.00 0.00 0.00 92 1014.2
20260510072327 10 316 0.0 4.8 0.00 0.00 0.00 92 1014.2
20260510071820 10 295 1.6 3.2 0.00 0.00 0.00 92 1014.1
20260510071313 10 233 0.0 4.8 0.00 0.00 0.00 91 1014.1
20260510070907 10 233 0.0 6.4 0.00 0.00 0.00 91 1014.2
20260510070359 10 262 0.0 6.4 0.00 0.00 0.00 91 1014.2
20260510065837 10 260 1.6 4.8 0.00 0.00 0.00 91 1014.1
20260510065330 10 260 1.6 4.8 0.00 0.00 0.00 91 1014.1
20260510064820 10 271 0.0 3.2 0.00 0.00 0.00 91 1014.0
20260510064312 10 271 0.0 6.4 0.00 0.00 0.00 91 1014.1
20260510063907 10 271 1.6 6.4 0.00 0.00 0.00 91 1014.1
20260510062835 10 268 0.0 11.3 0.00 0.00 0.00 91 1014.0
20260510062327 10 302 3.2 6.4 0.00 0.00 0.00 91 1014.0
20260510061341 10 240 1.6 8.0 0.00 0.00 0.00 90 1014.0
20260510060834 10 282 0.0 8.0 0.00 0.00 0.00 91 1014.0
20260510060327 10 294 0.0 4.8 0.00 0.00 0.00 90 1014.0
20260510055315 10 292 1.6 6.4 0.00 0.00 0.00 90 1014.1
20260510054828 10 217 0.0 4.8 0.00 0.00 0.00 89 1014.0
20260510054321 10 290 1.6 8.0 0.00 0.00 0.00 89 1014.0
20260510053817 10 271 0.0 8.0 0.00 0.00 0.00 90 1014.0
20260510053331 10 269 4.8 8.0 0.00 0.00 0.00 90 1014.1
20260510052823 10 277 3.2 8.0 0.00 0.00 0.00 90 1014.1
20260510052315 10 236 0.0 6.4 0.00 0.00 0.00 90 1014.1
20260510051829 10 273 1.6 6.4 0.00 0.00 0.00 89 1014.1
20260510051321 10 285 3.2 6.4 0.00 0.00 0.00 89 1014.1
20260510050814 10 222 3.2 6.4 0.00 0.00 0.00 89 1014.1
20260510050327 10 227 3.2 6.4 0.00 0.00 0.00 89 1014.2
20260510045823 10 272 0.0 1.6 0.00 0.00 0.00 89 1014.1
20260510045316 10 262 0.0 6.4 0.00 0.00 0.00 89 1014.1
20260510044829 10 274 1.6 6.4 0.00 0.00 0.00 89 1014.1
20260510044322 10 286 0.0 6.4 0.00 0.00 0.00 89 1014.0
20260510043815 10 243 1.6 9.7 0.00 0.00 0.00 89 1014.1
20260510043328 10 242 1.6 9.7 0.00 0.00 0.00 88 1014.1
20260510042820 10 290 1.6 8.0 0.00 0.00 0.00 88 1014.1
20260510042313 10 230 1.6 8.0 0.00 0.00 0.00 89 1014.2
20260510041830 10 233 1.6 6.4 0.00 0.00 0.00 89 1014.1
20260510041323 10 238 0.0 4.8 0.00 0.00 0.00 88 1014.1
20260510040318 10 290 1.6 9.7 0.00 0.00 0.00 89 1014.0
20260510035852 10 280 3.2 9.7 0.00 0.00 0.00 89 1014.0
20260510035343 10 274 0.0 4.8 0.00 0.00 0.00 88 1014.0
20260510033812 10 240 1.6 9.7 0.00 0.00 0.00 89 1013.9
20260510033406 10 240 3.2 9.7 0.00 0.00 0.00 89 1014.0
20260510032859 10 252 3.2 4.8 0.00 0.00 0.00 89 1014.0
20260510032336 10 280 1.6 4.8 0.00 0.00 0.00 89 1013.9
20260510031828 10 273 0.0 6.4 0.00 0.00 0.00 89 1013.9
20260510031402 10 273 1.6 6.4 0.00 0.00 0.00 90 1013.9
20260510030330 10 242 0.0 4.8 0.00 0.00 0.00 89 1013.9
20260510025822 10 242 0.0 4.8 0.00 0.00 0.00 89 1014.0
20260510025314 9 242 0.0 3.2 0.00 0.00 0.00 89 1014.0
20260510024906 9 242 0.0 1.6 0.00 0.00 0.00 88 1014.1
20260510024343 10 242 0.0 1.6 0.00 0.00 0.00 88 1014.1
20260510023836 10 242 0.0 1.6 0.00 0.00 0.00 86 1014.0
20260510023329 10 242 0.0 0.0 0.00 0.00 0.00 87 1014.0
20260510022822 10 242 0.0 0.0 0.00 0.00 0.00 87 1013.9
20260510022316 10 242 0.0 1.6 0.00 0.00 0.00 86 1013.8
20260510021343 10 242 0.0 1.6 0.00 0.00 0.00 85 1013.8
20260510020836 10 242 0.0 3.2 0.00 0.00 0.00 85 1013.7
20260510020313 10 242 1.6 3.2 0.00 0.00 0.00 83 1013.5
20260510015847 10 242 1.6 3.2 0.00 0.00 0.00 82 1013.4
20260510015340 11 242 1.6 3.2 0.00 0.00 0.00 81 1013.3
20260510014830 11 242 0.0 0.0 0.00 0.00 0.00 81 1013.2
20260510014402 11 242 0.0 1.6 0.00 0.00 0.00 80 1013.2
20260510013855 11 242 0.0 3.2 0.00 0.00 0.00 80 1013.1
20260510012904 11 242 0.0 3.2 0.00 0.00 0.00 80 1012.7
20260510012356 12 242 0.0 1.6 0.00 0.00 0.00 79 1012.7
20260510011834 12 242 0.0 1.6 0.00 0.00 0.00 79 1012.8
20260510011327 12 242 0.0 1.6 0.00 0.00 0.00 78 1012.7
20260510010819 12 242 0.0 1.6 0.00 0.00 0.00 77 1012.6
20260510005848 12 242 0.0 3.2 0.00 0.00 0.00 75 1012.5
20260510005341 13 242 1.6 3.2 0.00 0.00 0.00 75 1012.5
20260510004828 13 242 1.6 6.4 0.00 0.00 0.00 74 1012.4
20260510004401 13 242 3.2 8.0 0.00 0.00 0.00 74 1012.3
20260510003837 13 259 1.6 8.0 0.00 0.00 0.00 74 1012.4
20260510003331 13 270 1.6 4.8 0.00 0.00 0.00 73 1012.4
20260510002904 13 270 1.6 8.0 0.00 0.00 0.00 72 1012.4
20260510002358 13 249 3.2 8.0 0.00 0.00 0.00 72 1012.3
20260510001851 13 281 3.2 6.4 0.00 0.00 0.00 71 1012.2
20260509235851 15 231 3.2 11.3 0.00 0.00 0.00 69 1012.0
20260509235329 15 360 6.4 11.3 0.00 0.00 0.00 68 1011.9
20260509234820 15 256 4.8 12.9 0.00 0.00 0.00 68 1011.8
20260509234313 15 250 6.4 11.3 0.00 0.00 0.00 67 1011.8
20260509233341 15 276 4.8 12.9 0.00 0.00 0.00 65 1011.8
20260509232834 16 262 6.4 12.9 0.00 0.00 0.00 64 1011.8
20260509232326 16 275 4.8 14.5 0.00 0.00 0.00 64 1011.7
20260509231319 16 254 8.0 19.3 0.00 0.00 0.00 63 1011.6
20260509230853 16 234 11.3 19.3 0.00 0.00 0.00 63 1011.5
20260509230346 17 257 8.0 19.3 0.00 0.00 0.00 62 1011.4
20260509225839 17 293 11.3 19.3 0.00 0.00 0.00 61 1011.6
20260509224905 17 179 4.8 14.5 0.00 0.00 0.00 60 1011.6
20260509223833 17 274 4.8 12.9 0.00 0.00 0.00 61 1011.6
20260509223327 17 245 4.8 16.1 0.00 0.00 0.00 61 1011.7
20260509222338 17 215 6.4 17.7 0.00 0.00 0.00 60 1011.8
20260509221830 17 268 11.3 17.7 0.00 0.00 0.00 61 1011.8
20260509221324 17 238 8.0 19.3 0.00 0.00 0.00 61 1011.8
20260509220352 17 247 9.7 19.3 0.00 0.00 0.00 59 1011.8
20260509215844 17 221 9.7 19.3 0.00 0.00 0.00 60 1011.9
20260509215337 17 261 9.7 20.9 0.00 0.00 0.00 61 1011.9
20260509214814 17 208 12.9 20.9 0.00 0.00 0.00 59 1011.9
20260509214403 17 269 9.7 19.3 0.00 0.00 0.00 57 1011.8
20260509213355 17 203 4.8 16.1 0.00 0.00 0.00 59 1011.8
20260509212848 17 238 8.0 20.9 0.00 0.00 0.00 60 1011.8
20260509212341 17 243 9.7 17.7 0.00 0.00 0.00 60 1011.8
20260509211833 17 294 8.0 33.8 0.00 0.00 0.00 59 1011.7
20260509211327 17 291 12.9 33.8 0.00 0.00 0.00 57 1011.6
20260509210901 17 293 8.0 14.5 0.00 0.00 0.00 59 1011.6
20260509210353 17 203 6.4 29.0 0.00 0.00 0.00 61 1011.5
20260509205830 17 278 9.7 29.0 0.00 0.00 0.00 59 1011.6
20260509205404 17 303 8.0 17.7 0.00 0.00 0.00 60 1011.4
20260509204855 17 335 8.0 20.9 0.00 0.00 0.00 61 1011.6
20260509204348 17 250 11.3 25.7 0.00 0.00 0.00 60 1011.5
20260509203840 17 229 14.5 25.7 0.00 0.00 0.00 59 1011.3
20260509203333 17 213 12.9 22.5 0.00 0.00 0.00 61 1011.3
20260509202827 17 252 9.7 17.7 0.00 0.00 0.00 61 1011.2
20260509202400 16 243 8.0 17.7 0.00 0.00 0.00 59 1011.2
20260509201837 16 257 11.3 20.9 0.00 0.00 0.00 59 1011.3
20260509201329 16 214 9.7 20.9 0.00 0.00 0.00 55 1011.1
20260509200903 17 284 12.9 20.9 0.00 0.00 0.00 56 1011.1
20260509195830 17 250 8.0 16.1 0.00 0.00 0.00 60 1011.0
20260509195324 17 293 9.7 20.9 0.00 0.00 0.00 56 1011.0
20260509194816 17 297 11.3 20.9 0.00 0.00 0.00 59 1011.0
20260509194408 17 268 9.7 17.7 0.00 0.00 0.00 62 1011.0
20260509193846 16 184 11.3 19.3 0.00 0.00 0.00 58 1010.9
20260509191845 17 295 9.7 17.7 0.00 0.00 0.00 56 1011.0
20260509191337 17 210 8.0 17.7 0.00 0.00 0.00 58 1010.9
20260509190829 17 266 11.3 19.3 0.00 0.00 0.00 56 1010.9
20260509190402 17 228 8.0 16.1 0.00 0.00 0.00 60 1010.9
20260509185855 17 218 4.8 17.7 0.00 0.00 0.00 58 1010.9
20260509184846 17 252 8.0 17.7 0.00 0.00 0.00 57 1010.9
20260509184338 17 286 8.0 20.9 0.00 0.00 0.00 56 1011.0
20260509183831 17 319 12.9 20.9 0.00 0.00 0.00 55 1011.1
20260509182859 17 249 8.0 19.3 0.00 0.00 0.00 61 1011.0
20260509182352 17 284 11.3 19.3 0.00 0.00 0.00 59 1011.0
20260509181846 17 276 11.3 19.3 0.00 0.00 0.00 61 1011.1
20260509181322 17 269 9.7 17.7 0.00 0.00 0.00 63 1011.0
20260509180856 17 204 8.0 17.7 0.00 0.00 0.00 60 1011.0
20260509180349 17 222 9.7 17.7 0.00 0.00 0.00 66 1011.0
20260509175838 17 230 8.0 19.3 0.00 0.00 0.00 64 1010.9
20260509175329 17 295 8.0 19.3 0.00 0.00 0.00 61 1011.0
20260509174355 17 254 6.4 19.3 0.00 0.00 0.00 66 1010.9
20260509173848 16 267 9.7 19.3 0.00 0.00 0.00 63 1011.0
20260509173341 16 290 12.9 20.9 0.00 0.00 0.00 61 1011.2
20260509172819 16 212 9.7 16.1 0.00 0.00 0.00 61 1011.2
20260509172352 16 311 6.4 11.3 0.00 0.00 0.00 67 1011.1
20260509171846 16 201 4.8 17.7 0.00 0.00 0.00 66 1011.2
20260509171338 16 228 9.7 22.5 0.00 0.00 0.00 65 1011.3
20260509170832 16 263 9.7 22.5 0.00 0.00 0.00 63 1011.3
20260509170325 17 247 8.0 14.5 0.00 0.00 0.00 65 1011.3
20260509165817 16 201 6.4 16.1 0.00 0.00 0.00 66 1011.4
20260509164829 16 221 9.7 22.5 0.00 0.00 0.00 64 1011.5
20260509164401 16 229 4.8 22.5 0.00 0.00 0.00 66 1011.4
20260509163854 16 310 9.7 16.1 0.00 0.00 0.00 66 1011.4
20260509163347 16 347 4.8 11.3 0.00 0.00 0.00 71 1011.3
20260509162839 16 245 4.8 12.9 0.00 0.00 0.00 65 1011.3
20260509162331 16 283 9.7 17.7 0.00 0.00 0.00 63 1011.4
20260509161905 16 265 9.7 19.3 0.00 0.00 0.00 66 1011.4
20260509161359 16 223 9.7 22.5 0.00 0.00 0.00 64 1011.6
20260509160836 16 253 6.4 22.5 0.00 0.00 0.00 67 1011.5
20260509160328 16 250 11.3 24.1 0.00 0.00 0.00 67 1011.6
20260509155902 16 245 9.7 24.1 0.00 0.00 0.00 67 1011.4
20260509155355 16 246 9.7 22.5 0.00 0.00 0.00 67 1011.4
20260509154847 16 288 6.4 17.7 0.00 0.00 0.00 72 1011.2
20260509154337 15 295 11.3 19.3 0.00 0.00 0.00 68 1011.5
20260509153831 15 266 11.3 19.3 0.00 0.00 0.00 69 1011.5